Location: Couloutre
(47.4081°N, 3.2259°E)
Time: 14:38:03
(UTC+00:00)

STARLINK-1049 - Pass Details

Date: 27 February 2020
Orbit: 549 x 550 km, 53.0° (Epoch: 08 April)

Event Time Altitude Azimuth Distance (km) Brightness Sun altitude
Rises 18:47:07 0° 284° (WNW) 2,726 8.9 -14.1°
Reaches altitude 10° 18:49:29 10° 293° (WNW) 1,832 7.5 -14.5°
Maximum altitude 18:53:23 37° 2° (N) 867 4.6 -15.2°
Enters shadow 18:55:31 22° 56° (NE) 1,240 5.0 -15.5°
